APSTAR-6E

Last updated on Mon Oct 14 2024 00:02:42 GMT+0000 (Coordinated Universal Time)

1 55239U 23005A 24287.33847277 -.00000319 00000+0 00000+0 0 9990 2 55239 0.0458 91.9001 0002681 358.4232 187.9605 1.00269363 22197
UTC large
Height (km)
Speed (km/s)
/
Latitude / Longitude
Inclination (degrees)
Orbital Period (minutes)
Azimuth
Elevation
Range (km)
Doppler Factor

Next 0 passes for location: London (51.5072 / 0.1276)

Sorry there are no passes over London.